User: anonymous   Login
Location: Newark
(13.8625°N, 100.5144°E)
Time: 18:00:34
(UTC+00:00)
Language:

LightSail 2 - Orbit

View from above orbital plane
View from above orbital plane
View from above satellite
View from above satellite

Ground track
Ground track

The orbit data is extracted from the following two-line orbital elements,

1 44420U 19036AC  21162.84198859 -.00000344  00000-0 -11572-3 0  9999
2 44420  24.0036 349.2591 0010445 164.1789 195.9031 14.60104094102790
Epoch (UTC): 11 June 2021 20:12:27
Eccentricity: 0.0010445
inclination: 24.0036°
perigee height: 685 km
apogee height: 700 km
right ascension of ascending node: 349.2591°
argument of perigee: 164.1789°
revolutions per day: 14.60104094
mean anomaly at epoch: 195.9031°
orbit number at epoch: 10279

The dashed part of the orbit path shows where the satellite is in the earth's shadow,  

DLR